www.pogodaiklimat.ru

Погода и климат >> Архив погоды >> Пакистан >> Мултан


ПОГОДА в Мултане

  • Прогноз погоды в Мултане
  • Монитор погоды в Мултане

АРХИВ ПОГОДЫ в Мултане

Время (UTC), дата Ветер
(напр.,м/с)
 
Видим.   Явления Облачность Т
(С)
Тd
(С)
f
(%)
Тe
(С)
Тes
(С)
Комфортность P
(гПа)
Po
(гПа)
Тmin
(С)
Tmax
(С)
R
(мм)
R24
(мм)
S
(см)
03 13.06 штиль 0 4000 м ясно +31.0 +16.9 43 +35 +44 очень
душно
1001.8 987.7 +26.9
06 13.06 СВ 2 4000 м мгла ясно +38.5 +18.2 31 +42 +62 опасность
перегрева
1002.1 987.9
09 13.06 С 4 4000 м мгла ясно +40.0 +17.3 27 +43 +55 опасность
перегрева
1001.1 987.8
12 13.06 СВ 2 4000 м мгла ясно +41.0 +14.3 21 +42 +46 опасность
перегрева
998.7 984.5 +41.5
15 13.06 штиль 0 4000 м мгла ясно +39.0 +18.2 30 +43 +43 опасность
перегрева
998.9 985.5
18 13.06 штиль 0 4000 м мгла ясно +35.5 +18.0 36 +39 +39 очень
душно
999.9 985.7
21 13.06 штиль 0 4000 м мгла ясно +31.0 +18.8 48 +36 +36 очень
душно
999.1 1000.0
00 14.06 штиль 0 4000 м дым ясно +30.0 +19.4 53 +36 +36 очень
душно
999.4 985.2
03 14.06 штиль 0 2000 м мгла ясно +33.0 +20.4 48 +40 +49 очень
душно
1001.0 986.8 +29.6
06 14.06 Ю 1 4000 м мгла ясно +40.0 +17.3 27 +43 +66 опасность
перегрева
1000.7 986.5
09 14.06 ЮЗ 2 4000 м мгла ясно +43.0 +15.2 20 +44 +64 опасность
перегрева
998.6 1000.0
12 14.06 Ю 3 4000 м мгла ясно +43.0 +16.4 22 +45 +49 опасность
перегрева
996.6 982.5 +44.0
15 14.06 Ю 2 4000 м мгла 1/0
[Ac trans]
+39.0 +18.9 31 +43 +43 опасность
перегрева
997.1 1000.0
18 14.06 ЮЗ 4 4000 м мгла ясно +35.5 +22.6 47 +45 +45 опасность
перегрева
998.0 983.8
21 14.06 ЮЗ 5 4000 м дым ясно +34.0 +23.3 54 +45 +45 опасность
перегрева
997.1 983.5
00 15.06 ЮЗ 7 4000 м пыльный позёмок 3/0
[Ac trans]
+34.0 +22.5 51 +43 +43 опасность
перегрева
997.5 983.4
03 15.06 ЮЗ 4 4000 м пыльный позёмок 1/0
[Ac trans]
+34.5 +22.2 49 +43 +48 опасность
перегрева
998.6 984.4 +32.5
06 15.06 ЮЗ 5 2000 м пыльный позёмок ясно +39.0 +22.7 39 +48 +58 опасность
перегрева
998.6 984.4
09 15.06 ЮЗ 4 2000 м пыльный позёмок ясно +41.5 +21.4 32 +48 +60 опасность
перегрева
997.0 1000.0
12 15.06 ЮЗ 9 2000 м пыльный позёмок 5/5 1200 м
[Sc diur, vesp]
+41.0 +20.7 31 +47 +47 опасность
перегрева
995.1 981.0 +42.4
15 15.06 ЮЗ 5 2000 м мгла 8/4 1200 м
[Sc diur, vesp Ac As]
+38.0 +22.3 41 +47 +47 опасность
перегрева
996.4 983.0
18 15.06 З 2 4000 м зарница 5/5 900 м
[Cb calv]
+36.5 +20.3 39 +43 +43 опасность
перегрева
996.9 982.8
21 15.06 СВ 4 4000 м пыльный позёмок 4/4 1200 м
[Sc]
+33.0 +19.5 45 +39 +39 очень
душно
998.5 1000.0
00 16.06 СВ 4 4000 м мгла 4/0
[Ac trans]
+30.0 +17.5 47 +34 +34 очень
душно
999.9 985.7
03 16.06 штиль 0 4000 м мгла 3/0
[Ci fib]
+30.0 +17.5 47 +34 +43 очень
душно
1000.9 986.7 +28.1
06 16.06 СЗ 2 4000 м мгла ясно +34.0 +20.8 46 +41 +63 опасность
перегрева
1001.4 987.2
09 16.06 СЗ 1 4000 м мгла ясно +38.0 +22.3 41 +47 +68 опасность
перегрева
999.7 1000.0
12 16.06 СВ 3 4000 м мгла 1/0
[Ac trans]
+40.0 +18.3 28 +43 +47 опасность
перегрева
998.0 983.8 +40.4
15 16.06 ЮЗ 3 4000 м мгла 5/0
[Ac trans]
+37.0 +21.0 40 +44 +44 опасность
перегрева
998.6 985.2
18 16.06 ЮЗ 1 4000 м мгла 3/0
[Ac trans]
+34.0 +20.8 46 +41 +41 опасность
перегрева
998.8 984.6
21 16.06 ЮВ 4 4000 м мгла ясно +33.5 +21.0 48 +41 +41 опасность
перегрева
998.1 984.5
00 17.06 Ю 4 4000 м дым ясно +31.5 +23.6 63 +43 +43 опасность
перегрева
997.5 983.4
03 17.06 ЮЗ 5 4000 м пыльный позёмок ясно +32.5 +23.2 58 +43 +47 опасность
перегрева
998.5 984.3 +29.9
06 17.06 штиль 0 50 км пыльный позёмок ?/? +36.5 +22.1 43 +45 +45 опасность
перегрева
999.6 985.4
09 17.06 ЮЗ 5 2000 м пыльный позёмок ясно +38.0 +23.1 43 +48 +57 опасность
перегрева
997.9 1000.0
12 17.06 ЮЗ 8 2000 м пыльный позёмок 5/3 1200 м
[Sc Ac trans]
+38.0 +22.3 41 +47 +47 опасность
перегрева
995.7 981.6 +39.4
15 17.06 ЮЗ 6 2000 м пыльный позёмок 5/4 1200 м
[Sc Ac trans]
+36.0 +22.4 46 +45 +45 опасность
перегрева
995.7 982.3
18 17.06 штиль 0 4000 м дым {гроза} 8/4 1200 м
[Sc Ac trans]
+33.0 +22.1 53 +42 +42 опасность
перегрева
998.0 983.8 0.0
21 17.06 ЮВ 3 4000 м дым 10/6 300 м
[Sc As op]
+30.5 +19.1 51 +36 +36 очень
душно
998.2 1000.0
00 18.06 Ю 3 4000 м зарница {гроза, дождь} 9/6 900 м
[Cb calv Ac trans]
+25.0 +22.0 83 +32 +32 очень
душно
999.0 984.8 16
03 18.06 С 1 4000 м гроза без осадков 9/5 900 м
[Cb calv Ac As]
+26.5 +20.5 70 +33 +35 очень
душно
1000.0 985.8 +24.5
06 18.06 С 2 4000 м дым {гроза} 4/0
[Ac As]
+30.5 +22.5 62 +40 +54 опасность
солнечного
удара
1000.9 986.7
09 18.06 Ю 2 4000 м мгла 3/3 1200 м
[Sc]
+34.5 +22.2 49 +43 +57 опасность
перегрева
999.4 1000.0
12 18.06 штиль 0 4000 м мгла 8/3 1200 м
[Sc diur, vesp Ac As]
+34.5 +21.4 47 +42 +45 опасность
перегрева
998.2 984.0 +35.1
15 18.06 СВ 4 4000 м гроза, ливневой дождь {морось} 10/6 900 м
[Cb cap As op]
+26.0 +20.7 73 +33 +33 очень
душно
999.7 1000.0 0.0
18 18.06 штиль 0 4000 м дым {гроза, морось} 8/3 1200 м
[Sc Ac trans]
+27.0 +22.6 77 +36 +36 очень
душно
999.8 985.6 0.0
21 18.06 СВ 1 2000 м дымка 6/1 1200 м
[Sc Ac trans]
+26.0 +23.1 84 +35 +35 очень
душно
1000.2 1000.0
00 19.06 штиль 0 4000 м дым 3/0
[Ac trans]
+25.0 +22.8 88 +33 +33 очень
душно
1000.1 985.9
03 19.06 штиль 0 10 км ясно +27.5 +21.6 70 +35 +44 очень
душно
1001.4 987.2 +24.7
06 19.06 СВ 2 4000 м мгла ясно +33.0 +20.4 48 +40 +60 опасность
солнечного
удара
1001.6 987.4
09 19.06 СВ 2 4000 м мгла ясно +36.5 +22.1 43 +45 +65 опасность
перегрева
1000.5 1000.0
12 19.06 Ю 3 4000 м мгла 1/0
[Ac trans]
+36.5 +21.2 41 +44 +47 опасность
перегрева
998.3 984.1 +37.2
15 19.06 ЮЗ 1 4000 м дым 6/6 1200 м
[Sc diur, vesp]
+34.0 +23.3 54 +45 +45 опасность
перегрева
999.0 1000.0
18 19.06 ЮВ 3 4000 м дым {метель} 9/4 1200 м
[Sc Ac trans]
+33.0 +23.8 59 +45 +45 опасность
перегрева
999.2 985.6
21 19.06 штиль 0 4000 м дым 6/3 1200 м
[Sc Ac As]
+31.5 +23.6 63 +43 +43 опасность
перегрева
999.8 1000.0
00 20.06 штиль 0 4000 м дым 5/3 1200 м
[Sc Ac As]
+30.0 +24.3 72 +42 +42 опасность
перегрева
1000.0 985.8

 

Местоположение метеостанции Мултан (Пакистан): широта 30.20 долгота 71.43 высота над уровнем моря 123 м.

В архиве по умолчанию представлена погода в Мултане за последнюю неделю. Архивные данные за месяц целиком и за предыдущие месяцы, начиная с января 2011 года, Вы можете получить, выбрав интересующий диапазон дат из раскрывающегося списка и нажав кнопку "Ввод!".


*Определитесь, кто Вы:
робот инопланетянин человек

Внимание! Время в таблицах - всемирное. Для получения местного времени необходимо прибавить поправку, которая равна 5 ч.

Смотрите также архив погоды в соседних городах и на ближайших метеорологических станциях:

Погода в Ханевале (Пакистан) (47 км)
Погода в Кот Адду (Пакистан) (54 км)
Погода в Дера Гази Хан (Пакистан) (79 км)
Погода в Бахавалпуре (Пакистан) (95 км)
Погода а Бахавалпур аэропорту (Пакистан) (95 км)
Погода на Авиабазе Raifiqui (Пакистан) (98 км)
Погода в Леяхе (Пакистан) (101 км)
Погода в Тоба Тек Сингх (Пакистан) (132 км)
Погода в Джанге (Пакистан) (146 км)
Погода в Сахивале (Пакистан) (161 км)

Пояснения к столбцам:

Ветер - указаны скорость ветра в м/с - средняя за 10 мин, порывы в срок и между сроками (в фигурных скобках) и направление, откуда дует ветер: С - северный, СВ - северо-восточный, В - восточный, ЮВ - юго-восточный, Ю - южный, ЮЗ - юго-западный, З - западный, СЗ - северо-западный.
Видимость - горизонтальная дальность видимости в метрах или километрах. При видимости от 1 до 10 км при отсутствии осадков обычно наблюдается дымка, при ухудшении видимости до 1 км и менее - туман. В сухую погоду видимость может ухудшаться дымом, пылью или мглою.
Явления - указаны атмосферные явления, наблюдавшиеся в срок или в последний час перед сроком; фигурными скобками обозначены явления, наблюдавшиеся между сроками (за 1-3 часа до срока); квадратными скобками обозначены град или гололедные отложения с указанием их диаметра в мм.
Облачность - указаны через наклонную черту общая и нижняя облачность в баллах и высота нижней границы облаков в метрах; квадратными скобками обозначены формы облаков: Ci - перистые, Cs - перисто-слоистые, Cc - перисто-кучевые, Ac - высококучевые, As - высокослоистые, Sc - слоисто-кучевые, Ns - слоисто-дождевые, Cu - кучевые, Cb - кучево-дождевые. Подробнее классификацию облаков см. в Атласе облаков (PDF).
T - Температура воздуха - температура, измеренная на высоте 2 м над землей.
Td - Температура точки росы - температура, при понижении до которой содержащийся в воздухе водяной пар достигнет насыщения.
f - Относительная влажность воздуха - влажноcть воздуха, измеренная на высоте 2 м над землей.
Te - Эффективная температура - температура, которую ощущает одетый по сезону человек в тени. Характеристика душности погоды. При расчете учитывается влияние влажности воздуха и скорости ветра на теплоощущения человека.
Tes - Эффективная температура на солнце - температура, которую ощущает человек, с поправкой на солнечный нагрев. Характеристика знойности погоды. Зависит от высоты солнца над горизонтом, облачности и скорости ветра. Ночью, в пасмурную погоду, а также при ветре 12 м/с и более поправка равна нулю.
P - Атмосферное давление - приведенное к уровню моря атмосферное давление.
Po - Атмосферное давление - измеренное на уровне метеостанции атмосферное давление.
Tmin - Минимальная температура - минимум температуры воздуха на высоте 2 м над землей.
Tmax - Максимальная температура - максимум температуры воздуха на высоте 2 м над землей.
R - Количество осадков - Количество выпавших осадков за период времени, мм. При наведении курсора мыши на число - период времени, за который выпало указанное количество осадков.
R24 - Количество осадков - Количество выпавших осадков за 24 часа, мм.
S - Снежный покров - Высота снежного покрова, см. При наведении курсора мыши на число - состояние снежного покрова и степень покрытия местности в баллах.